,,Stat6,,Stat2,,Stat8,,Stat9,,Stat10,,Wind1,,Wind1,
time,status,PA1M_AVG,status,PR1M_SUM,status,RH1M_AVG,status,SR1M_AVG,status,TA1M_AVG,status,W1dAve1m,status,W1sAve1m,
2004-02-20, 00:00:00,VALID,919.384,VALID,0,VALID,99.3072,VALID,-0.0679233,VALID,19.7613,VALID,353,VALID,0.81108,
2004-02-20, 00:01:00,VALID,919.368,VALID,0,VALID,99.2564,VALID,-0.0849042,VALID,19.7514,VALID,341,VALID,0.632465,
2004-02-20, 00:02:00,VALID,919.351,VALID,0,VALID,99.2576,VALID,-0.0679233,VALID,19.7584,VALID,351,VALID,0.22745,
2004-02-20, 00:03:00,VALID,919.327,VALID,0,VALID,99.2983,VALID,-0.0509425,VALID,19.7412,VALID,352,VALID,0.535156,
2004-02-20, 00:04:00,VALID,919.316,VALID,0,VALID,99.3136,VALID,-0.0849042,VALID,19.7517,VALID,352,VALID,0.173328,
2004-02-20, 00:05:00,VALID,919.296,VALID,0,VALID,99.3034,VALID,-0.0339617,VALID,19.7477,VALID,356,VALID,0.342919,
2004-02-20, 00:06:00,VALID,919.276,VALID,0,VALID,99.3123,VALID,-0.0679233,VALID,19.7313,VALID,342,VALID,0.349276,
2004-02-20, 00:07:00,VALID,919.255,VALID,0,VALID,99.3835,VALID,-0.0339617,VALID,19.7541,VALID,342,VALID,0.523438,
2004-02-20, 00:08:00,VALID,919.254,VALID,0,VALID,99.3899,VALID,-0.0849042,VALID,19.7507,VALID,351,VALID,0.484933,
2004-02-20, 00:09:00,VALID,919.24,VALID,0,VALID,99.4217,VALID,-0.0509425,VALID,19.7477,VALID,360,VALID,0.300509,
2004-02-20, 00:10:00,VALID,919.232,VALID,0,VALID,99.3861,VALID,-0.0509425,VALID,19.7348,VALID,360,VALID,0.266768,
2004-02-20, 00:11:00,VALID,919.211,VALID,0,VALID,99.3772,VALID,-0.0509425,VALID,19.732,VALID,360,VALID,0.0474077,
2004-02-20, 00:12:00,VALID,919.176,VALID,0,VALID,99.3568,VALID,-0.0509425,VALID,19.7256,VALID,360,VALID,0.0234375,
2004-02-20, 00:13:00,VALID,919.133,VALID,0,VALID,99.3556,VALID,-0.0679233,VALID,19.7318,VALID,360,VALID,0.0323933,
2004-02-20, 00:14:00,VALID,919.108,VALID,0,VALID,99.3797,VALID,-0.0509425,VALID,19.735,VALID,360,VALID,0,
2004-02-20, 00:15:00,VALID,919.055,VALID,0,VALID,99.4369,VALID,-0.0679233,VALID,19.7541,VALID,360,VALID,0,
2004-02-20, 00:16:00,VALID,919.041,VALID,0,VALID,99.3861,VALID,-0.0339617,VALID,19.7603,VALID,360,VALID,0,
2004-02-20, 00:17:00,VALID,918.996,VALID,0,VALID,99.3759,VALID,-0.0849042,VALID,19.7743,VALID,360,VALID,0.0805432,
2004-02-20, 00:18:00,VALID,918.934,VALID,0,VALID,99.2805,VALID,-0.101885,VALID,19.7708,VALID,353,VALID,0.609375,
2004-02-20, 00:19:00,VALID,918.918,VALID,0,VALID,99.1496,VALID,-0.0679233,VALID,19.7579,VALID,355,VALID,0.775746,
2004-02-20, 00:20:00,VALID,918.892,VALID,0,VALID,99.0504,VALID,-0.101885,VALID,19.7412,VALID,346,VALID,0.535528,
2004-02-20, 00:21:00,VALID,918.875,VALID,0,VALID,98.9919,VALID,-0.101885,VALID,19.7355,VALID,327,VALID,0.559338,
2004-02-20, 00:22:00,VALID,918.867,VALID,0,VALID,99.0364,VALID,-0.0679233,VALID,19.7286,VALID,324,VALID,0.195676,
2004-02-20, 00:23:00,VALID,918.856,VALID,0,VALID,99.0656,VALID,-0.0679233,VALID,19.7288,VALID,325,VALID,0.00349069,
2004-02-20, 00:24:00,VALID,918.849,VALID,0,VALID,99.0809,VALID,-0.0679233,VALID,19.7355,VALID,325,VALID,0.0295759,
2004-02-20, 00:25:00,VALID,918.835,VALID,0,VALID,99.0338,VALID,-0.0849042,VALID,19.7194,VALID,327,VALID,0.39184,
2004-02-20, 00:26:00,VALID,918.83,VALID,0,VALID,98.9703,VALID,-0.0849042,VALID,19.6968,VALID,329,VALID,0.324505,
2004-02-20, 00:27:00,VALID,918.829,VALID,0,VALID,99.0313,VALID,-0.0679233,VALID,19.7097,VALID,8,VALID,0.474432,
2004-02-20, 00:28:00,VALID,918.834,VALID,0,VALID,99.105,VALID,-0.0849042,VALID,19.7223,VALID,10,VALID,0.488582,
2004-02-20, 00:29:00,VALID,918.832,VALID,0,VALID,99.0504,VALID,-0.0679233,VALID,19.7156,VALID,12,VALID,0.727493,
2004-02-20, 00:30:00,VALID,918.833,VALID,0,VALID,98.983,VALID,-0.0849042,VALID,19.7062,VALID,7,VALID,0.589935,
2004-02-20, 00:31:00,VALID,918.846,VALID,0,VALID,99.0046,VALID,-0.0849042,VALID,19.7059,VALID,7,VALID,0.427641,
2004-02-20, 00:32:00,VALID,918.839,VALID,0,VALID,99.0402,VALID,-0.0509425,VALID,19.7035,VALID,7,VALID,0.426829,
2004-02-20, 00:33:00,VALID,918.82,VALID,0,VALID,99.0631,VALID,-0.0849042,VALID,19.7,VALID,1,VALID,0.503729,
2004-02-20, 00:34:00,VALID,918.791,VALID,0,VALID,99.0377,VALID,-0.0849042,VALID,19.6903,VALID,353,VALID,0.569531,
2004-02-20, 00:35:00,VALID,918.771,VALID,0,VALID,99.044,VALID,-0.0849042,VALID,19.6995,VALID,14,VALID,0.693824,
2004-02-20, 00:36:00,VALID,918.749,VALID,0,VALID,99.0173,VALID,-0.101885,VALID,19.696,VALID,28,VALID,0.669969,
2004-02-20, 00:37:00,VALID,918.716,VALID,0,VALID,99.0275,VALID,-0.0679233,VALID,19.7094,VALID,26,VALID,0.526677,
2004-02-20, 00:38:00,VALID,918.674,VALID,0,VALID,99.0249,VALID,-0.0679233,VALID,19.7191,VALID,23,VALID,0.547569,
2004-02-20, 00:39:00,VALID,918.652,VALID,0,VALID,99.0097,VALID,-0.0339617,VALID,19.7122,VALID,23,VALID,0.496271,
2004-02-20, 00:40:00,VALID,918.613,VALID,0,VALID,98.997,VALID,-0.0509425,VALID,19.7258,VALID,23,VALID,0.388417,
2004-02-20, 00:41:00,VALID,918.592,VALID,0,VALID,98.9474,VALID,-0.0849042,VALID,19.7122,VALID,23,VALID,0.215376,
2004-02-20, 00:42:00,VALID,918.581,VALID,0,VALID,98.8673,VALID,-0.0509425,VALID,19.7127,VALID,23,VALID,0.050071,
2004-02-20, 00:43:00,VALID,918.553,VALID,0,VALID,98.8901,VALID,0,VALID,19.7027,VALID,23,VALID,0,
2004-02-20, 00:44:00,VALID,918.528,VALID,0,VALID,98.9283,VALID,-0.0679233,VALID,19.7132,VALID,23,VALID,0,
2004-02-20, 00:45:00,VALID,918.507,VALID,0,VALID,98.913,VALID,-0.0509425,VALID,19.7097,VALID,23,VALID,0.00109012,
2004-02-20, 00:46:00,VALID,918.498,VALID,0,VALID,98.9067,VALID,-0.0509425,VALID,19.7127,VALID,23,VALID,0.0332961,
2004-02-20, 00:47:00,VALID,918.484,VALID,0,VALID,98.9029,VALID,-0.0849042,VALID,19.7025,VALID,23,VALID,0.27782,
2004-02-20, 00:48:00,VALID,918.486,VALID,0,VALID,98.9741,VALID,-0.0679233,VALID,19.7122,VALID,23,VALID,0.341016,
2004-02-20, 00:49:00,VALID,918.482,VALID,0,VALID,99.03,VALID,-0.0679233,VALID,19.7283,VALID,23,VALID,0.491425,
2004-02-20, 00:50:00,VALID,918.462,VALID,0,VALID,98.8558,VALID,-0.0339617,VALID,19.7228,VALID,20,VALID,0.588542,
2004-02-20, 00:51:00,VALID,918.447,VALID,0,VALID,98.8316,VALID,-0.0509425,VALID,19.7132,VALID,19,VALID,0.47793,
2004-02-20, 00:52:00,VALID,918.439,VALID,0,VALID,98.8329,VALID,-0.101885,VALID,19.7064,VALID,19,VALID,0.377539,
2004-02-20, 00:53:00,VALID,918.406,VALID,0,VALID,98.913,VALID,-0.101885,VALID,19.7094,VALID,19,VALID,0.289249,
2004-02-20, 00:54:00,VALID,918.383,VALID,0,VALID,98.8558,VALID,-0.0339617,VALID,19.7064,VALID,9,VALID,0.457122,
2004-02-20, 00:55:00,VALID,918.373,VALID,0,VALID,98.7986,VALID,-0.0169808,VALID,19.6602,VALID,354,VALID,0.468403,
2004-02-20, 00:56:00,VALID,918.35,VALID,0,VALID,98.8304,VALID,-0.0849042,VALID,19.6709,VALID,354,VALID,0.40987,
2004-02-20, 00:57:00,VALID,918.338,VALID,0,VALID,98.8393,VALID,-0.0849042,VALID,19.6607,VALID,354,VALID,0.535528,
2004-02-20, 00:58:00,VALID,918.319,VALID,0.2,VALID,98.8227,VALID,-0.0509425,VALID,19.6414,VALID,354,VALID,0.444586,
2004-02-20, 00:59:00,VALID,918.315,VALID,0,VALID,98.8049,VALID,-0.101885,VALID,19.6352,VALID,353,VALID,0.362926,
2004-02-20, 01:00:00,VALID,918.291,VALID,0,VALID,98.8431,VALID,-0.0849042,VALID,19.6322,VALID,353,VALID,0.280692,
2004-02-20, 01:01:00,VALID,918.282,VALID,0,VALID,98.866,VALID,-0.0679233,VALID,19.6155,VALID,354,VALID,0.132635,
2004-02-20, 01:02:00,VALID,918.265,VALID,0,VALID,98.8736,VALID,-0.0339617,VALID,19.6058,VALID,354,VALID,0.0520241,
2004-02-20, 01:03:00,VALID,918.237,VALID,0,VALID,98.969,VALID,-0.0509425,VALID,19.6093,VALID,354,VALID,0.366097,
2004-02-20, 01:04:00,VALID,918.211,VALID,0,VALID,99.0478,VALID,-0.0679233,VALID,19.6252,VALID,14,VALID,0.861702,
2004-02-20, 01:05:00,VALID,918.185,VALID,0,VALID,98.9385,VALID,-0.101885,VALID,19.6128,VALID,29,VALID,0.871354,
2004-02-20, 01:06:00,VALID,918.163,VALID,0,VALID,98.9296,VALID,-0.0849042,VALID,19.6063,VALID,34,VALID,0.766868,
2004-02-20, 01:07:00,VALID,918.136,VALID,0,VALID,98.9156,VALID,-0.0679233,VALID,19.5899,VALID,27,VALID,0.417535,
2004-02-20, 01:08:00,VALID,918.101,VALID,0,VALID,98.913,VALID,-0.0679233,VALID,19.5899,VALID,34,VALID,0.727431,
2004-02-20, 01:09:00,VALID,918.077,VALID,0,VALID,98.9092,VALID,-0.0849042,VALID,19.587,VALID,36,VALID,0.799733,
2004-02-20, 01:10:00,VALID,918.051,VALID,0,VALID,98.8723,VALID,-0.0679233,VALID,19.5803,VALID,34,VALID,0.788281,
2004-02-20, 01:11:00,VALID,918.053,VALID,0,VALID,98.9079,VALID,-0.0509425,VALID,19.577,VALID,30,VALID,0.538175,
2004-02-20, 01:12:00,VALID,918.047,VALID,0,VALID,98.9041,VALID,-0.0509425,VALID,19.6066,VALID,13,VALID,0.554501,
2004-02-20, 01:13:00,VALID,918.047,VALID,0,VALID,98.8571,VALID,-0.0339617,VALID,19.5798,VALID,13,VALID,0.494234,
2004-02-20, 01:14:00,VALID,918.048,VALID,0,VALID,98.8291,VALID,-0.0509425,VALID,19.5798,VALID,10,VALID,0.493521,
2004-02-20, 01:15:00,VALID,918.039,VALID,0,VALID,98.7554,VALID,-0.0169808,VALID,19.5629,VALID,359,VALID,0.380335,
2004-02-20, 01:16:00,VALID,918.035,VALID,0,VALID,98.81,VALID,0,VALID,19.5532,VALID,353,VALID,0.304688,
2004-02-20, 01:17:00,VALID,918.021,VALID,0,VALID,98.8189,VALID,-0.0169808,VALID,19.5403,VALID,353,VALID,0.125533,
2004-02-20, 01:18:00,VALID,918.005,VALID,0,VALID,98.8622,VALID,0,VALID,19.5271,VALID,353,VALID,0.163681,
2004-02-20, 01:19:00,VALID,917.999,VALID,0,VALID,98.927,VALID,0,VALID,19.5338,VALID,353,VALID,0.000571646,
2004-02-20, 01:20:00,VALID,917.984,VALID,0,VALID,98.9881,VALID,-0.0169808,VALID,19.5368,VALID,352,VALID,0.385069,
2004-02-20, 01:21:00,VALID,917.976,VALID,0,VALID,98.9334,VALID,0,VALID,19.5241,VALID,352,VALID,0.216797,
2004-02-20, 01:22:00,VALID,917.967,VALID,0,VALID,98.941,VALID,0,VALID,19.5077,VALID,352,VALID,0.297238,
2004-02-20, 01:23:00,VALID,917.949,VALID,0,VALID,98.9919,VALID,0,VALID,19.5147,VALID,354,VALID,0.525298,
2004-02-20, 01:24:00,VALID,917.929,VALID,0,VALID,99.0033,VALID,0,VALID,19.4948,VALID,1,VALID,0.686592,
2004-02-20, 01:25:00,VALID,917.913,VALID,0,VALID,99.016,VALID,0.0169808,VALID,19.5117,VALID,1,VALID,0.637091,
2004-02-20, 01:26:00,VALID,917.897,VALID,0,VALID,98.9753,VALID,-0.0339617,VALID,19.4985,VALID,358,VALID,0.67528,
2004-02-20, 01:27:00,VALID,917.884,VALID,0,VALID,98.9397,VALID,-0.0169808,VALID,19.469,VALID,356,VALID,0.637153,
2004-02-20, 01:28:00,VALID,917.872,VALID,0,VALID,98.9944,VALID,-0.0169808,VALID,19.5055,VALID,356,VALID,0.538261,
2004-02-20, 01:29:00,VALID,917.869,VALID,0,VALID,98.9842,VALID,-0.0339617,VALID,19.5085,VALID,359,VALID,0.65952,
2004-02-20, 01:30:00,VALID,917.864,VALID,0,VALID,98.9931,VALID,0,VALID,19.5082,VALID,16,VALID,0.589236,
2004-02-20, 01:31:00,VALID,917.854,VALID,0,VALID,98.9397,VALID,-0.0169808,VALID,19.5246,VALID,358,VALID,0.433949,
2004-02-20, 01:32:00,VALID,917.854,VALID,0,VALID,98.8749,VALID,0,VALID,19.5048,VALID,353,VALID,0.472301,
2004-02-20, 01:33:00,VALID,917.845,VALID,0,VALID,98.6918,VALID,-0.0169808,VALID,19.502,VALID,329,VALID,0.453125,
2004-02-20, 01:34:00,VALID,917.836,VALID,0,VALID,98.6905,VALID,-0.0169808,VALID,19.4914,VALID,322,VALID,0.222656,
2004-02-20, 01:35:00,VALID,917.826,VALID,0,VALID,98.5799,VALID,0.0169808,VALID,19.4889,VALID,322,VALID,0.413281,
2004-02-20, 01:36:00,VALID,917.806,VALID,0,VALID,98.4896,VALID,0,VALID,19.4824,VALID,313,VALID,0.443677,
2004-02-20, 01:37:00,VALID,917.792,VALID,0,VALID,98.4387,VALID,-0.0169808,VALID,19.4822,VALID,309,VALID,0.413715,
2004-02-20, 01:38:00,VALID,917.782,VALID,0,VALID,98.5417,VALID,0,VALID,19.4943,VALID,309,VALID,0.00923295,
2004-02-20, 01:39:00,VALID,917.767,VALID,0,VALID,98.5659,VALID,0,VALID,19.508,VALID,318,VALID,0.525441,
2004-02-20, 01:40:00,VALID,917.746,VALID,0,VALID,98.6269,VALID,0,VALID,19.5142,VALID,355,VALID,0.135045,
2004-02-20, 01:41:00,VALID,917.736,VALID,0,VALID,98.6778,VALID,0,VALID,19.5209,VALID,355,VALID,0,
2004-02-20, 01:42:00,VALID,917.729,VALID,0,VALID,98.7732,VALID,-0.0169808,VALID,19.5246,VALID,355,VALID,0.0426962,
2004-02-20, 01:43:00,VALID,917.719,VALID,0,VALID,98.9029,VALID,0,VALID,19.5115,VALID,352,VALID,0.333147,
2004-02-20, 01:44:00,VALID,917.716,VALID,0,VALID,99.0313,VALID,0,VALID,19.5087,VALID,352,VALID,0.191406,
2004-02-20, 01:45:00,VALID,917.721,VALID,0,VALID,99.1724,VALID,-0.0339617,VALID,19.5179,VALID,352,VALID,0.0832741,
2004-02-20, 01:46:00,VALID,917.723,VALID,0,VALID,99.2576,VALID,-0.0169808,VALID,19.5241,VALID,352,VALID,0.0926599,
2004-02-20, 01:47:00,VALID,917.709,VALID,0,VALID,99.325,VALID,-0.0339617,VALID,19.547,VALID,352,VALID,0.00546875,
2004-02-20, 01:48:00,VALID,917.725,VALID,0,VALID,99.4039,VALID,0,VALID,19.5636,VALID,352,VALID,0.0361753,
2004-02-20, 01:49:00,VALID,917.727,VALID,0,VALID,99.4865,VALID,-0.0169808,VALID,19.5731,VALID,352,VALID,0,
2004-02-20, 01:50:00,VALID,917.727,VALID,0,VALID,99.5704,VALID,0,VALID,19.5823,VALID,352,VALID,0.120117,
2004-02-20, 01:51:00,VALID,917.72,VALID,0,VALID,99.6353,VALID,-0.0169808,VALID,19.6051,VALID,359,VALID,0.477134,
2004-02-20, 01:52:00,VALID,917.728,VALID,0,VALID,99.6938,VALID,0,VALID,19.6282,VALID,11,VALID,0.65718,
2004-02-20, 01:53:00,VALID,917.735,VALID,0,VALID,99.7256,VALID,-0.0169808,VALID,19.6409,VALID,17,VALID,0.649581,
2004-02-20, 01:54:00,VALID,917.744,VALID,0,VALID,99.7319,VALID,0,VALID,19.6441,VALID,26,VALID,0.631138,
2004-02-20, 01:55:00,VALID,917.739,VALID,0,VALID,99.7243,VALID,-0.0509425,VALID,19.6344,VALID,20,VALID,0.806548,
2004-02-20, 01:56:00,VALID,917.753,VALID,0,VALID,99.6862,VALID,-0.0509425,VALID,19.615,VALID,21,VALID,0.763587,
2004-02-20, 01:57:00,VALID,917.749,VALID,0,VALID,99.7014,VALID,0,VALID,19.6086,VALID,23,VALID,0.593378,
2004-02-20, 01:58:00,VALID,917.743,VALID,0,VALID,99.7078,VALID,0,VALID,19.5753,VALID,23,VALID,0.533913,
2004-02-20, 01:59:00,VALID,917.741,VALID,0,VALID,99.6798,VALID,0,VALID,19.5624,VALID,13,VALID,0.884615,
2004-02-20, 02:00:00,VALID,917.718,VALID,0,VALID,99.6671,VALID,0,VALID,19.5472,VALID,11,VALID,0.882068,
2004-02-20, 02:01:00,VALID,917.714,VALID,0,VALID,99.6073,VALID,0,VALID,19.5117,VALID,15,VALID,0.839753,
2004-02-20, 02:02:00,VALID,917.692,VALID,0,VALID,99.6073,VALID,-0.0339617,VALID,19.4859,VALID,13,VALID,0.800199,
2004-02-20, 02:03:00,VALID,917.681,VALID,0,VALID,99.559,VALID,0,VALID,19.463,VALID,11,VALID,1.11233,
2004-02-20, 02:04:00,VALID,917.656,VALID,0,VALID,99.4738,VALID,0.0169808,VALID,19.424,VALID,8,VALID,1.06194,
2004-02-20, 02:05:00,VALID,917.632,VALID,0,VALID,99.5387,VALID,0,VALID,19.398,VALID,5,VALID,0.856468,
2004-02-20, 02:06:00,VALID,917.596,VALID,0,VALID,99.5514,VALID,0,VALID,19.4116,VALID,15,VALID,1.07795,
2004-02-20, 02:07:00,VALID,917.558,VALID,0,VALID,99.5654,VALID,0,VALID,19.3985,VALID,23,VALID,1.14444,
2004-02-20, 02:08:00,VALID,917.529,VALID,0,VALID,99.5832,VALID,0,VALID,19.3823,VALID,4,VALID,0.989062,
2004-02-20, 02:09:00,VALID,917.508,VALID,0,VALID,99.6099,VALID,-0.0339617,VALID,19.386,VALID,22,VALID,0.981148,
2004-02-20, 02:10:00,VALID,917.489,VALID,0,VALID,99.6862,VALID,-0.0509425,VALID,19.3922,VALID,7,VALID,0.700581,
2004-02-20, 02:11:00,VALID,917.477,VALID,0,VALID,99.662,VALID,-0.0509425,VALID,19.3992,VALID,19,VALID,1.02575,
2004-02-20, 02:12:00,VALID,917.449,VALID,0,VALID,99.6226,VALID,0.0169808,VALID,19.3694,VALID,18,VALID,0.65293,
2004-02-20, 02:13:00,VALID,917.439,VALID,0,VALID,99.6073,VALID,0,VALID,19.3632,VALID,19,VALID,1.03277,
2004-02-20, 02:14:00,VALID,917.418,VALID,0,VALID,99.5832,VALID,-0.0169808,VALID,19.3371,VALID,27,VALID,0.827009,
2004-02-20, 02:15:00,VALID,917.393,VALID,0,VALID,99.648,VALID,-0.101885,VALID,19.3512,VALID,23,VALID,0.84266,
2004-02-20, 02:16:00,VALID,917.367,VALID,0,VALID,99.6556,VALID,-0.0849042,VALID,19.3445,VALID,21,VALID,0.695313,
2004-02-20, 02:17:00,VALID,917.361,VALID,0,VALID,99.7129,VALID,-0.0849042,VALID,19.3582,VALID,20,VALID,0.784722,
2004-02-20, 02:18:00,VALID,917.342,VALID,0,VALID,99.6887,VALID,-0.0679233,VALID,19.3512,VALID,15,VALID,0.820135,
2004-02-20, 02:19:00,VALID,917.324,VALID,0,VALID,99.6658,VALID,-0.0849042,VALID,19.3351,VALID,25,VALID,1.03142,
2004-02-20, 02:20:00,VALID,917.325,VALID,0,VALID,99.6569,VALID,-0.101885,VALID,19.3224,VALID,27,VALID,1.18516,
2004-02-20, 02:21:00,VALID,917.301,VALID,0,VALID,99.6798,VALID,-0.0509425,VALID,19.3122,VALID,19,VALID,0.807575,
2004-02-20, 02:22:00,VALID,917.32,VALID,0,VALID,99.7141,VALID,-0.0679233,VALID,19.3157,VALID,17,VALID,0.456845,
2004-02-20, 02:23:00,VALID,917.308,VALID,0,VALID,99.7192,VALID,-0.0679233,VALID,19.3093,VALID,26,VALID,0.2258,
2004-02-20, 02:24:00,VALID,917.294,VALID,0,VALID,99.723,VALID,-0.0509425,VALID,19.3127,VALID,53,VALID,0.285764,
2004-02-20, 02:25:00,VALID,917.293,VALID,0,VALID,99.6925,VALID,-0.0509425,VALID,19.3023,VALID,52,VALID,0.417302,
2004-02-20, 02:26:00,VALID,917.292,VALID,0,VALID,99.6506,VALID,-0.0849042,VALID,19.303,VALID,48,VALID,0.469308,
2004-02-20, 02:27:00,VALID,917.279,VALID,0,VALID,99.6442,VALID,-0.0679233,VALID,19.2966,VALID,53,VALID,0.668146,
2004-02-20, 02:28:00,VALID,917.27,VALID,0,VALID,99.5768,VALID,-0.101885,VALID,19.2871,VALID,62,VALID,0.562691,
2004-02-20, 02:29:00,VALID,917.263,VALID,0,VALID,99.5488,VALID,-0.0679233,VALID,19.2904,VALID,62,VALID,0.511719,
2004-02-20, 02:30:00,VALID,917.245,VALID,0,VALID,99.4992,VALID,-0.0849042,VALID,19.2869,VALID,65,VALID,0.43657,
2004-02-20, 02:31:00,VALID,917.224,VALID,0,VALID,99.4687,VALID,-0.0849042,VALID,19.2767,VALID,63,VALID,0.590376,
2004-02-20, 02:32:00,VALID,917.216,VALID,0,VALID,99.4408,VALID,-0.0849042,VALID,19.2869,VALID,42,VALID,0.709413,
2004-02-20, 02:33:00,VALID,917.191,VALID,0,VALID,99.4051,VALID,-0.0509425,VALID,19.3063,VALID,35,VALID,0.423781,
2004-02-20, 02:34:00,VALID,917.177,VALID,0,VALID,99.3263,VALID,-0.0679233,VALID,19.3199,VALID,35,VALID,0.294034,
2004-02-20, 02:35:00,VALID,917.161,VALID,0,VALID,99.2169,VALID,-0.0849042,VALID,19.2971,VALID,38,VALID,0.347834,
2004-02-20, 02:36:00,VALID,917.152,VALID,0,VALID,99.1445,VALID,-0.101885,VALID,19.2839,VALID,60,VALID,0.475229,
2004-02-20, 02:37:00,VALID,917.15,VALID,0,VALID,99.1114,VALID,-0.0509425,VALID,19.2871,VALID,68,VALID,0.446911,
2004-02-20, 02:38:00,VALID,917.147,VALID,0,VALID,99.1305,VALID,-0.101885,VALID,19.3065,VALID,68,VALID,0.434482,
2004-02-20, 02:39:00,VALID,917.153,VALID,0,VALID,99.147,VALID,-0.0509425,VALID,19.3326,VALID,68,VALID,0.148247,
2004-02-20, 02:40:00,VALID,917.144,VALID,0,VALID,99.0961,VALID,-0.0849042,VALID,19.3296,VALID,68,VALID,0,
2004-02-20, 02:41:00,VALID,917.133,VALID,0,VALID,99.0644,VALID,-0.101885,VALID,19.3095,VALID,68,VALID,0,
2004-02-20, 02:42:01,VALID,917.117,VALID,0,VALID,99.0224,VALID,-0.0849042,VALID,19.3033,VALID,68,VALID,0,
2004-02-20, 02:43:00,VALID,917.098,VALID,0,VALID,99.016,VALID,-0.0849042,VALID,19.2871,VALID,68,VALID,0.222752,
2004-02-20, 02:44:01,VALID,917.072,VALID,0,VALID,99.044,VALID,0,VALID,19.2963,VALID,67,VALID,0.521019,
2004-02-20, 02:45:01,VALID,917.042,VALID,0,VALID,98.9652,VALID,0,VALID,19.2825,VALID,66,VALID,0.72154,
2004-02-20, 02:46:00,VALID,917.023,VALID,0,VALID,98.9461,VALID,0.0339617,VALID,19.2829,VALID,65,VALID,0.756882,
2004-02-20, 02:47:00,VALID,917.025,VALID,0,VALID,98.9346,VALID,0.0169808,VALID,19.2693,VALID,57,VALID,0.71131,
2004-02-20, 02:48:00,VALID,917.042,VALID,0,VALID,98.8901,VALID,0.0169808,VALID,19.2569,VALID,53,VALID,0.508013,
2004-02-20, 02:49:01,VALID,917.054,VALID,0,VALID,98.927,VALID,0.0339617,VALID,19.2437,VALID,53,VALID,0.0999645,
2004-02-20, 02:50:00,VALID,917.077,VALID,0,VALID,98.9537,VALID,0.0169808,VALID,19.2407,VALID,53,VALID,0.000545058,
2004-02-20, 02:51:00,VALID,917.075,VALID,0,VALID,98.9486,VALID,0.0339617,VALID,19.2243,VALID,53,VALID,0.183594,
2004-02-20, 02:52:00,VALID,917.07,VALID,0,VALID,99.0148,VALID,0,VALID,19.2117,VALID,33,VALID,0.367788,
2004-02-20, 02:53:01,VALID,917.09,VALID,0,VALID,98.9461,VALID,0,VALID,19.2022,VALID,1,VALID,0.448438,
2004-02-20, 02:54:01,VALID,917.106,VALID,0,VALID,98.9334,VALID,0,VALID,19.1665,VALID,1,VALID,0.311967,
2004-02-20, 02:55:00,VALID,917.113,VALID,0,VALID,99.0071,VALID,0.0169808,VALID,19.1863,VALID,1,VALID,0.208789,
2004-02-20, 02:56:00,VALID,917.124,VALID,0,VALID,99.1114,VALID,0.0339617,VALID,19.1923,VALID,1,VALID,0.295058,
2004-02-20, 02:57:00,VALID,917.117,VALID,0,VALID,99.1635,VALID,0.0169808,VALID,19.2022,VALID,1,VALID,0.152253,
2004-02-20, 02:58:01,VALID,917.108,VALID,0,VALID,99.222,VALID,0.0169808,VALID,19.1896,VALID,1,VALID,0.202398,
2004-02-20, 02:59:01,VALID,917.088,VALID,0,VALID,99.2958,VALID,-0.0339617,VALID,19.193,VALID,1,VALID,0.374256,
2004-02-20, 03:00:00,VALID,917.077,VALID,0,VALID,99.3619,VALID,-0.101885,VALID,19.1875,VALID,5,VALID,0.365007,
2004-02-20, 03:01:01,VALID,917.105,VALID,0,VALID,99.4242,VALID,-0.0679233,VALID,19.1967,VALID,12,VALID,0.33631,
2004-02-20, 03:02:00,VALID,917.131,VALID,0,VALID,99.4039,VALID,-0.0849042,VALID,19.1905,VALID,12,VALID,0.240104,
2004-02-20, 03:03:01,VALID,917.147,VALID,0,VALID,99.4166,VALID,-0.0679233,VALID,19.1781,VALID,328,VALID,0.407965,
2004-02-20, 03:04:01,VALID,917.153,VALID,0,VALID,99.5272,VALID,-0.101885,VALID,19.1711,VALID,313,VALID,0.204578,
2004-02-20, 03:05:00,VALID,917.155,VALID,0,VALID,99.5895,VALID,-0.101885,VALID,19.1811,VALID,313,VALID,0.0031622,
2004-02-20, 03:06:01,VALID,917.159,VALID,0,VALID,99.6531,VALID,-0.0679233,VALID,19.1905,VALID,313,VALID,0.00609756,
2004-02-20, 03:07:01,VALID,917.166,VALID,0,VALID,99.6849,VALID,-0.0849042,VALID,19.1903,VALID,313,VALID,0.198847,
2004-02-20, 03:08:00,VALID,917.162,VALID,0,VALID,99.7421,VALID,-0.0339617,VALID,19.2101,VALID,315,VALID,0.388263,
2004-02-20, 03:09:00,VALID,917.161,VALID,0,VALID,99.8171,VALID,-0.0509425,VALID,19.2228,VALID,316,VALID,0.202762,
2004-02-20, 03:10:00,VALID,917.165,VALID,0,VALID,99.826,VALID,-0.0679233,VALID,19.2258,VALID,316,VALID,0.123095,
2004-02-20, 03:11:01,VALID,917.169,VALID,0,VALID,99.8222,VALID,-0.0849042,VALID,19.2198,VALID,316,VALID,0.339939,
2004-02-20, 03:12:00,VALID,917.176,VALID,0,VALID,99.8413,VALID,-0.0849042,VALID,19.2263,VALID,317,VALID,0.0438988,
2004-02-20, 03:13:00,VALID,917.174,VALID,0,VALID,99.8616,VALID,-0.0679233,VALID,19.2295,VALID,317,VALID,0,
2004-02-20, 03:14:00,VALID,917.198,VALID,0,VALID,99.896,VALID,-0.0509425,VALID,19.2293,VALID,317,VALID,0,
2004-02-20, 03:15:00,VALID,917.203,VALID,0,VALID,99.9125,VALID,0,VALID,19.2243,VALID,317,VALID,0,
2004-02-20, 03:16:00,VALID,917.226,VALID,0,VALID,99.9227,VALID,0,VALID,19.2447,VALID,317,VALID,0,
2004-02-20, 03:17:00,VALID,917.234,VALID,0,VALID,99.9519,VALID,0,VALID,19.2407,VALID,317,VALID,0,
2004-02-20, 03:18:00,VALID,917.247,VALID,0,VALID,99.9685,VALID,0.0169808,VALID,19.234,VALID,317,VALID,0.0974609,
2004-02-20, 03:19:00,VALID,917.225,VALID,0,VALID,99.9748,VALID,0.0509425,VALID,19.2437,VALID,317,VALID,0.0171875,
2004-02-20, 03:20:00,VALID,917.227,VALID,0,VALID,99.9957,VALID,0,VALID,19.2566,VALID,317,VALID,0,
2004-02-20, 03:21:01,VALID,917.223,VALID,0,VALID,100,VALID,0,VALID,19.2735,VALID,317,VALID,0.128239,
2004-02-20, 03:22:00,VALID,917.209,VALID,0,VALID,100,VALID,0,VALID,19.2924,VALID,317,VALID,0.242898,
2004-02-20, 03:23:01,VALID,917.203,VALID,0,VALID,100,VALID,0,VALID,19.309,VALID,317,VALID,0,
2004-02-20, 03:24:00,VALID,917.208,VALID,0,VALID,100,VALID,0,VALID,19.3083,VALID,317,VALID,0,
2004-02-20, 03:25:00,VALID,917.217,VALID,0,VALID,100,VALID,0,VALID,19.3152,VALID,317,VALID,0.00109012,
2004-02-20, 03:26:00,VALID,917.223,VALID,0,VALID,100,VALID,0.0169808,VALID,19.3187,VALID,317,VALID,0,
2004-02-20, 03:27:00,VALID,917.229,VALID,0,VALID,100,VALID,0,VALID,19.3155,VALID,317,VALID,0.109205,
2004-02-20, 03:28:00,VALID,917.234,VALID,0,VALID,100,VALID,0,VALID,19.3021,VALID,317,VALID,0.326637,
2004-02-20, 03:29:01,VALID,917.24,VALID,0,VALID,100,VALID,0.0169808,VALID,19.3021,VALID,317,VALID,0.0956101,
2004-02-20, 03:30:00,VALID,917.238,VALID,0,VALID,100,VALID,0.0339617,VALID,19.312,VALID,309,VALID,0.18657,
2004-02-20, 03:31:01,VALID,917.24,VALID,0,VALID,100,VALID,0.0169808,VALID,19.3051,VALID,288,VALID,0.317769,
2004-02-20, 03:32:00,VALID,917.235,VALID,0,VALID,100,VALID,0,VALID,19.3018,VALID,259,VALID,0.346007,
2004-02-20, 03:33:01,VALID,917.226,VALID,0,VALID,100,VALID,0,VALID,19.3214,VALID,257,VALID,0.0530134,
2004-02-20, 03:34:00,VALID,917.222,VALID,0,VALID,100,VALID,0.0339617,VALID,19.3406,VALID,257,VALID,0.0138672,
2004-02-20, 03:35:01,VALID,917.219,VALID,0,VALID,100,VALID,0.0169808,VALID,19.3473,VALID,257,VALID,0,